Regional Weather Roundup
Issued by NWS

Home | Current Version | Previous Version | Graphics & Text | Print | Product List | Glossary On
Versions: 1 2 3 4 5 6 7 8 9 10 11 12 13 14 15 16 17 18 19 20 21 22 23 24 25 26 27 28 29 30 31 32 33 34 35 36 37 38 39 40 41 42 43 44 45 46 47 48 49 50
000
ASUS45 KPSR 281410
RWRAZ

ARIZONA REGIONAL HOURLY WEATHER ROUNDUP
NATIONAL WEATHER SERVICE PHOENIX AZ
700 AM MST WED JAN 28 2015

NOTE: FAIR INDICATES FEW OR NO CLOUDS BELOW 12,000 FEET WITH NO
SIGNIFICANT WEATHER AND/OR OBSTRUCTIONS TO VISIBILITY.

AZZ001>003-036-281500-
NORTHWEST ARIZONA

CITY           SKY/WX    TMP DP  RH WIND       PRES   REMARKS
BULLHEAD CITY  CLEAR     54  50  87 N3        30.22R
KINGMAN        CLEAR     37  35  92 SE3       30.24S
$$

AZZ004>008-015-016-018-281500-
NORTH CENTRAL ARIZONA

CITY           SKY/WX    TMP DP  RH WIND       PRES   REMARKS
GRAND CANYON   PTCLDY    24  22  91 CALM      30.31R
PRESCOTT       FOG       34  32  92 S5        30.27S VSB 3/4 WCI  30
FLAGSTAFF      PTCLDY    22  19  89 CALM      30.30S
PAYSON         CLEAR     37  36  93 CALM      30.28S
$$

AZZ009>014-017-281500-
NORTHEAST ARIZONA

CITY           SKY/WX    TMP DP  RH WIND       PRES   REMARKS
WINSLOW        PTCLDY    27  24  89 SE5       30.30R WCI  22
SAINT JOHNS    CLEAR     35  31  85 CALM      30.29R
WINDOW ROCK    CLEAR     28  23  81 CALM      30.31R
SHOW LOW       CLEAR     28  28 100 CALM      30.32R FOG
$$

AZZ023-281500-
GREATER PHOENIX AREA

CITY           SKY/WX    TMP DP  RH WIND       PRES   REMARKS
PHOENIX        MOCLDY    53  49  86 E7        30.15S
BUCKEYE          N/A     50  50 100 E7        30.17R
GLENDALE       PTCLDY    52  52 100 W5        30.18R
LUKE AFB       NOT AVBL
DEER VALLEY    CLEAR     51  47  86 N5        30.16R
SCOTTSDALE     CLEAR     52  47  83 CALM      30.17S
MESA-FALCON    PTCLDY    54  48  82 N6        30.16S
MESA-GATEWAY   PTCLDY    46  45  93 SE6       30.18S
CHANDLER       PTCLDY    48  48 100 CALM      30.17S
$$

AZZ027-028-281500-
SOUTHWEST MARICOPA COUNTY AND PINAL COUNTY

CITY           SKY/WX    TMP DP  RH WIND       PRES   REMARKS
CASA GRANDE    CLEAR     46  43  87 CALM      30.18R
GILA BEND      MOSUNNY   51  50  95 SE6       30.15S
$$

AZZ503-504-507>509-281500-
SOUTHEAST ARIZONA

CITY           SKY/WX    TMP DP  RH WIND       PRES   REMARKS
TUCSON         CLEAR     48  44  86 SE6       30.22R
DAVIS-MONTHAN  CLEAR     47  47  98 S6        30.19R
RYAN FIELD       N/A     45  45 100 E3        30.22R
NOGALES        CLEAR     40  37  89 NE5       30.23R
SIERRA VISTA   PTCLDY    46  41  81 SW3       30.26R
DOUGLAS        CLEAR     37  33  85 N7        30.24R WCI  32
SAFFORD        CLEAR     41  35  79 E6        30.21R
$$

AZZ020-021-025-026-031-281500-
SOUTHWEST ARIZONA

CITY           SKY/WX    TMP DP  RH WIND       PRES   REMARKS
YUMA           PTCLDY    52  49  89 CALM      30.15S
$$

CAZ031-033-041-043-047-048-061-281500-
SOUTHERN CALIFORNIA

CITY           SKY/WX    TMP DP  RH WIND       PRES   REMARKS
DOWNTOWN L.A.  CLOUDY    58  46  64 CALM      30.13S
L.A. AIRPORT   CLOUDY    57  47  69 CALM      30.14R
SAN DIEGO      MOCLDY    56  48  74 NE3       30.14S
BURBANK        CLOUDY    53  46  77 NE3       30.14R
ONTARIO        CLOUDY    54  45  71 N3        30.14S
RIVERSIDE      MOCLDY    50  46  86 E3        30.16S
PALM SPRINGS   PTCLDY    53  46  77 N7        30.20R
EL CENTRO NAS  PTCLDY    49  47  93 W6        30.17R
IMPERIAL       CLEAR     50  48  93 W5        30.17R
BLYTHE         PTCLDY    52  51  97 W5        30.19R
NEEDLES        PTCLDY    52  48  86 CALM      30.21R
$$

NVZ020-UTZ003-281500-
SOUTHERN NEVADA-UTAH

CITY           SKY/WX    TMP DP  RH WIND       PRES   REMARKS
LAS VEGAS      MOCLDY    50  44  80 S10       30.21R
SALT LAKE CITY CLOUDY    40  37  89 CALM      30.23R
$$

NMZ009-TXZ055-281500-
NEW MEXICO-WEST TEXAS

CITY           SKY/WX    TMP DP  RH WIND       PRES   REMARKS
ALBUQUERQUE    PTCLDY    35  29  78 SE5       30.27R WCI  31
EL PASO        PTCLDY    44  38  79 NE3       30.21R
$$


........................KEY........................
SKY/WX - SKY CONDITION/WEATHER
TMP    - TEMPERATURE IN FAHRENHEIT
DP     - DEW POINT IN FAHRENHEIT
RH     - RELATIVE HUMIDITY IN PERCENT
WIND   - DIRECTION AND SPEED IN MILES PER HOUR (MPH)
VRB    - VARIABLE WIND DIRECTION
PRES   - MEAN SEA LEVEL PRESSURE IN INCHES OF MERCURY
         F - FALLING PRESSURE   R - RISING PRESSURE
         S - STEADY PRESSURE
VSB    - VISIBILITY IN MILES
HX     - HEAT INDEX IN FAHRENHEIT
WCI    - WIND CHILL INDEX IN FAHRENHEIT
TC     - TEMPERATURE IN CELSIUS WHICH IS ALSO KNOWN AS
         TEMPERATURE IN CENTIGRADE
AFB    - AIR FORCE BASE
         LUKE AFB IS LUKE AIR FORCE BASE
         DAVIS-MONTHAN IS DAVIS-MONTHAN AIR FORCE BASE
NAS    - NAVAL AIR STATION
         EL CENTRO NAS IS EL CENTRO NAVAL AIR STATION
N/A    - NOT AVAILABLE



USA.gov is the U.S. government's official web portal to all federal, state and local government web resources and services.